Regional Weather Roundup
Issued by NWS Charleston, SC

Current Version | Previous Version | Text Only | Print | Product List | Glossary Off
Versions: 1 2 3 4 5 6 7 8 9 10 11 12 13 14 15 16 17 18 19 20 21 22 23 24 25 26 27 28 29 30 31 32 33 34 35 36 37 38 39 40 41 42 43 44 45 46 47 48 49 50

988
ASUS42 KCHS 301328
RWRCHS

REGIONAL WEATHER ROUNDUP
NATIONAL WEATHER SERVICE CHARLESTON SC
900 AM EDT TUE AUG 30 2016

NOTE: "FAIR" INDICATES FEW OR NO CLOUDS BELOW 12,000 FEET WITH NO
SIGNIFICANT WEATHER AND/OR OBSTRUCTIONS TO VISIBILITY.

NOT ALL STATIONS ARE QUALITY CONTROLLED. USE DATA WITH CAUTION...
ESPECIALLY DEWPOINT OBSERVATIONS.

SCZ027-030-031-034>040-042>050-301400-
...SOUTHEAST SOUTH CAROLINA...

CITY           SKY/WX    TMP DP  RH WIND       PRES   REMARKS
N CHARLESTON   CLOUDY    76  72  87 NE7       30.06S
WATERFRONT PRK   N/A     77  76  97 N7        30.03S
MOUNT PLEASANT FAIR      75  73  94 CALM      30.06S
JOHNS ISLAND   FAIR      79  75  89 CALM      30.06S
PINOPOLIS        N/A     75  73  94 NE7       30.00R
MONCKS CORNER  PTSUNNY   73  72  94 NE7       30.07S
SUMMERVILLE    FAIR      75  75 100 CALM      30.08S
BEAUFORT MCAS  CLOUDY    78  74  87 NE7       30.07R
BEAUFORT ARPT  CLOUDY    77  73  88 N7        30.06S FOG
HILTON HEAD IS PTSUNNY   77  73  88 N9        30.07R
WALTERBORO     PTSUNNY   79  79 100 NE3       30.08S
ALLENDALE      FAIR      79  73  83 NE5       30.07S

...SOUTHERN MIDLANDS AND PEE DEE...

CITY           SKY/WX    TMP DP  RH WIND       PRES   REMARKS
GEORGETOWN     FAIR      75  70  83 NE5       30.08R
KINGSTREE      FAIR      77  72  83 NE5       30.08S
ORANGEBURG     CLOUDY    77  72  84 NE8       30.08S
BARNWELL       NOT AVBL
AIKEN          FAIR      73  72  94 NE6       30.13S
MANNING        FAIR      77  70  78 NE6       30.08S
COLUMBIA       CLOUDY    76  70  82 NE5       30.08S
SUMTER         PTSUNNY   76  69  81 NE6       30.07S
FLORENCE       MOSUNNY   80  72  76 NE10      30.09S
MYRTLE BEACH   MOSUNNY   75  63  64 N7        30.08S
N MYRTLE BEACH CLOUDY    75  71  87 N7        30.07R

$$

GAZ063-065-086>088-099>101-113>116-118-119-134>141-150-301400-
...SOUTHEAST GEORGIA...

CITY           SKY/WX    TMP DP  RH WIND       PRES   REMARKS
SAVANNAH ARPT  PTSUNNY   76  73  91 NE5       30.06R
HUNTER AAF     PTSUNNY   75  75 100 W2        30.04R
FORT STEWART   PTSUNNY   78  74  89 NE7       30.03R
STATESBORO     PTSUNNY   78  75  92 NE3       30.08R
SYLVANIA       NOT AVBL
CLAXTON        CLOUDY    79  76  89 N8        30.07R

...CSRA...CENTRAL AND FAR SOUTHEAST GEORGIA...

CITY           SKY/WX    TMP DP  RH WIND       PRES   REMARKS
THOMSON        NOT AVBL
AUGUSTA-BUSH   MOSUNNY   77  73  87 N5        30.08R
AUGUSTA-DANIEL SUNNY     81  71  71 NE7       30.10R
SWAINSBORO     FAIR      79  72  78 NE7       30.09R
VIDALIA        CLOUDY    79  77  94 NE8       30.07S
EASTMAN        FAIR      81  71  71 E8        30.09S
HAZLEHURST     FAIR      79  77  95 CALM      30.05R
ALMA           CLOUDY    76  74  93 VRB5      30.04S
WAYCROSS         N/A     80  79  96 E6        30.03S
JESUP          FAIR      81  79  94 NE8       30.04S
BAXLEY         FAIR      79  79 100 E7        30.04S
BRUNSWICK      MOSUNNY   82  79  89 N6        30.03S HX  93
SAINT SIMONS   PTSUNNY   84  73  69 E8        30.02R HX  90

$$

SCZ027-028-034-036>038-045-046-048>050-GAZ119-141-301400-
...LAKE AND SUPPLEMENTAL COASTAL OBSERVATIONS...

STATION/POSITION TIME  TEMP    WIND        PRES    WAVE   SWELL
                       AIR SEA DIR/SP/G            HT/PER HT/PER/DIR
                 (UTC) (F)     (DEG/KT/KT) (MB)    (FT/S) (FT/S/D)
WINYAH BAY       1245   76      20/  5     1017.0R
LAKE MURRAY      1200   74     360/  2/  3 1018.3R
ACE BASIN NERRS  1200   74      20/  2     1018.0R
FORT PULASKI     1300   79 85   10/  9/ 11 1017.8R
SAPELO ISLAND    1300   82      70/  2     1017.0S

$$

ANZ835-935-AMZ111-154-330-350-352-354-370-450-454-472-301400-
...C-MAN AND BUOY OBSERVATIONS...

STATION/POSITION TIME  TEMP    WIND        PRES    WAVE   SWELL
                       AIR SEA DIR/SP/G            HT/PER HT/PER/DIR
                 (UTC) (F)     (DEG/KT/KT) (MB)    (FT/S) (FT/S/D)
BUOY 41004       1250   82 85   50/ 10/ 12 1016.8R   3/12   3/120/12
BUOY 41008       1250   82 85  110/  8/ 10 1016.6R   3/13   3/100/13
FOLLY BEACH CMAN 1300   78     360/  4/  5 1017.9R
CAPERS NEARSHORE 1208   79 83   30/ 10/ 14 1017.3R
FRIPP NEARSHORE  1308   80 85   60/ 14/ 16 1016.8R


STATION/POSITION TIME  TEMP    WIND        PRES    WAVE   SWELL
                       AIR SEA DIR/SP/G            HT/PER HT/PER/DIR
                 (UTC) (F)     (DEG/KT/KT) (MB)    (FT/S) (FT/S/D)
5E ST. MARYS GA  1301      84                N/A     4/13   2/ 90/13
FRYING PAN BUOY  1300   81 84   30/ 10/ 14 1017.6R
BUOY 41025       1250   82 84   60/ 14/ 16 1016.0R   7/12   7/ 90/12
CAPE LOOKOUT NC  1300   78      10/ 12/ 14 1016.6R
BUOY 41002       1250   83 84  250/ 12/ 14 1016.6R   5/10   3/ 90/10
BUOY 41010       NOT AVBL
ST AUGUSTINE FL  1300   79 83  100/ 13/ 15 1015.9R


$$




USA.gov is the U.S. government's official web portal to all federal, state and local government web resources and services.